Powrót do katalogu

STARLINK-3705

AktywnyŁącznośćVLEO
NORAD 52103·PAYLOAD·🇺🇸 United States

Wystrzelony Mar 19, 2022 z Cape Canaveral Space Force Station

Loading…

Następne Przeloty (najbliższe 24 godziny)

TLE

ŚwieżeSource: CelesTrak SupGP

Epoka: Sep 14, 2026, 21:16 UTC

1 52103C 22029R   26257.88659722  .00009415  00000+0  27832-3 0  2575
2 52103  53.1562 295.6096 0001138  91.5324  28.5902 15.34369431    15

Śledź STARLINK-3705 w czasie rzeczywistym z AllMySat

Download on the App Store